Weather History for Point Lay, AK

Change the Weather History Date:

Sunday, December 9, 2012

  Actual Average Record
Temperature  
Mean Temperature -24 °F -  
Max Temperature -22 °F 0 °F 30 °F (2013)
Min Temperature -27 °F -4 °F -27 °F (2012)
Degree Days  
Heating Degree Days 90    
Moisture  
Dew Point -32 °F    
Average Humidity 71    
Maximum Humidity 76    
Minimum Humidity 69    
Precipitation  
Precipitation 0.00 in - - ()
Sea Level Pressure  
Sea Level Pressure 30.01 in    
Wind  
Wind Speed 14 mph (NE)    
Max Wind Speed 18 mph    
Max Gust Speed -    
Visibility 10 miles    
Events      
Averages and records for this station are not official NWS values.
T = Trace of Precipitation, MM = Missing Value Source: NWS Daily Summary

Daily Weather History Graph

Daily Weather History Graph

Search for Another Location

Airport:

Trip Planner

Search our weather history database for the weather conditions in past years. The results will help you decide how hot, cold, wet, or windy it might be!

Date:

Astronomy

Dec. 09, 2012 Rise Set
Actual Time 1:12 PM AKST 2:17 PM AKST
Civil Twilight 11:23 AM AKST 4:05 PM AKST
Nautical Twilight 9:42 AM AKST 5:46 PM AKST
Astronomical Twilight 8:25 AM AKST 7:03 PM AKST
Moon 6:41 AM AKST (12/9) 1:38 PM AKST (12/9)
Length of Visible Light 4h 41m
Length of Day
1h 04m
Waning Crescent, 17% of the Moon is Illuminated
Dec 9
Waning Crescent
Dec 12
New
Dec 19
First Quarter
Dec 28
Full
Jan 4
Last Quarter

Hourly Weather History & Observations

Time (AKST) Temp. Windchill Dew Point Humidity Pressure Visibility Wind Dir Wind Speed Gust Speed Precip Events Conditions
12:56 AM -22.9 °F -51.1 °F -29.9 °F 70% 30.11 in - NE 18.4 mph - N/A   Mostly Cloudy
1:24 AM -23.8 °F -50.7 °F -29.2 °F 76% 30.08 in - NE 16.1 mph - N/A   Mostly Cloudy
1:56 AM -22.9 °F -50.3 °F -28.8 °F 74% 30.08 in - NE 17.3 mph - N/A   Mostly Cloudy
2:05 AM -23.8 °F -52.2 °F -29.2 °F 76% 30.06 in - NE 18.4 mph - N/A   Clear
2:56 AM -23.8 °F -52.2 °F -29.2 °F 76% 30.05 in - NE 18.4 mph - N/A   Clear
3:56 AM -24.0 °F -50.1 °F -29.9 °F 74% 30.06 in - NE 15.0 mph - N/A   Clear
4:56 AM -24.9 °F -48.3 °F -31.0 °F 73% 30.05 in - NE 11.5 mph - N/A   Clear
5:56 AM -25.6 °F -50.2 °F -31.0 °F 76% 30.02 in - NE 12.7 mph - N/A   Clear
6:56 AM -24.9 °F -49.3 °F -31.9 °F 70% 30.03 in - NE 12.7 mph - N/A   Clear
7:56 AM -24.9 °F -49.3 °F -31.9 °F 70% 30.01 in - NE 12.7 mph - N/A   Clear
8:56 AM -25.6 °F -49.2 °F -32.8 °F 69% 29.99 in - NE 11.5 mph - N/A   Clear
9:13 AM -25.6 °F -49.2 °F -32.8 °F 69% 29.99 in - NE 11.5 mph - N/A   Mostly Cloudy
9:24 AM -25.6 °F -50.2 °F -32.8 °F 69% 29.99 in - NE 12.7 mph - N/A   Clear
9:56 AM -26.0 °F -48.5 °F -31.9 °F 73% 30.00 in - ENE 10.4 mph - N/A   Clear
10:56 AM -26.0 °F -48.5 °F -33.0 °F 69% 30.00 in - NE 10.4 mph - N/A   Clear
11:56 AM -26.9 °F -48.3 °F -33.0 °F 73% 30.00 in 10.0 mi NE 9.2 mph - N/A   Clear
12:56 PM -26.9 °F -46.9 °F -33.0 °F 73% 30.01 in 10.0 mi ENE 8.1 mph - N/A   Clear
1:56 PM -26.9 °F -49.6 °F -33.0 °F 73% 29.99 in - ENE 10.4 mph - N/A   Clear
2:56 PM -27.4 °F -49.0 °F -34.6 °F 69% 29.98 in - NE 9.2 mph - N/A   Clear
3:56 PM -26.0 °F -47.2 °F -33.0 °F 69% 29.99 in - NE 9.2 mph - N/A   Clear
4:56 PM -26.0 °F -45.8 °F -33.0 °F 69% 29.98 in 10.0 mi ENE 8.1 mph - N/A   Clear
5:56 PM -26.0 °F -47.2 °F -33.0 °F 69% 29.98 in 10.0 mi NE 9.2 mph - N/A   Clear
6:56 PM -26.9 °F -48.3 °F -33.0 °F 73% 29.98 in 10.0 mi NE 9.2 mph - N/A   Clear
7:56 PM -26.0 °F -47.2 °F -33.0 °F 69% 29.97 in 10.0 mi NE 9.2 mph - N/A   Clear
8:56 PM -26.0 °F -47.2 °F -33.0 °F 69% 29.96 in 10.0 mi NE 9.2 mph - N/A   Clear
9:56 PM -26.9 °F -48.3 °F -33.9 °F 69% 29.95 in 10.0 mi NE 9.2 mph - N/A   Clear
10:56 PM -27.9 °F -48.2 °F -33.9 °F 73% 29.96 in 10.0 mi NE 8.1 mph - N/A   Clear
11:56 PM -27.9 °F -48.2 °F -35.0 °F 69% 29.96 in 10.0 mi ENE 8.1 mph - N/A   Clear